Regional Weather Roundup
Issued by NWS

Home | Current Version | Previous Version | Graphics & Text | Print | Product List | Glossary On
Versions: 1 2 3 4 5 6 7 8 9 10 11 12 13 14 15 16 17 18 19 20 21 22 23 24 25 26 27 28 29 30 31 32 33 34 35 36 37 38 39 40 41 42 43 44 45 46 47 48 49 50
000
ASUS43 KOAX 250802
RWRNE

WEATHER ROUNDUP FOR NEBRASKA
NATIONAL WEATHER SERVICE OMAHA NE
300 AM CDT TUE APR 25 2017

NOTES: SATELLITE DATA IS BEING USED TO AUGMENT CLOUD COVER ABOVE
       12000 FEET.
       "FAIR" INDICATES FEW OR NO CLOUDS BELOW 12,000 FEET WITH NO
       SIGNIFICANT WEATHER AND/OR OBSTRUCTIONS TO VISIBILITY.

  * THESE STATIONS DO NOT REPORT WEATHER SUCH AS RAIN...SNOW OR FOG.

NEZ001>004-019>022-054>056-250900-
NEBRASKA PANHANDLE

CITY           SKY/WX    TMP DP  RH WIND       PRES   REMARKS
SCOTTSBLUFF    LGT RAIN  46  43  89 E12       29.56F
ALLIANCE       RAIN      46  44  93 W3        29.59R FOG
CHADRON        LGT RAIN  46  44  93 NE13      29.58F
KIMBALL        RAIN      40  40 100 SW3       29.59F
SIDNEY         LGT RAIN  42  40  92 NW17      29.58F
$$

NEZ057>060-069>072-079>082-250900-
SOUTHWEST NEBRASKA

CITY           SKY/WX    TMP DP  RH WIND       PRES   REMARKS
NORTH PLATTE   CLOUDY    47  45  93 E10       29.54F
IMPERIAL       CLOUDY    46  43  89 E17G25    29.48F
LEXINGTON      LGT RAIN  48  43  82 NE12      29.57R
MCCOOK         CLOUDY    53  41  63 N17G28    29.52R
OGALLALA       CLOUDY    47  45  90 E10       29.51S
$$

NEZ005>010-023>029-035>040-094-250900-
NORTH CENTRAL NEBRASKA

CITY           SKY/WX    TMP DP  RH WIND       PRES   REMARKS
VALENTINE      CLOUDY    39  33  79 NE13      29.61F WCI  31
AINSWORTH      CLOUDY    40  38  93 NE9       29.60F WCI  34
BROKEN BOW     LGT RAIN  46  40  79 N15       29.55F
O`NEILL        CLOUDY    42  38  86 N10       29.62R
ORD            CLOUDY    47  39  74 N10       29.57R
THEDFORD       CLOUDY    45  40  85 E10       29.57F
$$

NEZ041-046>049-061>064-073>077-083>087-250900-
SOUTH CENTRAL NEBRASKA

CITY           SKY/WX    TMP DP  RH WIND       PRES   REMARKS
GRAND ISLAND   CLOUDY    46  40  79 N14       29.54F
AURORA         CLOUDY    47  40  76 N8        29.54F
HASTINGS       MOCLDY    50  39  66 NE13      29.55F
HEBRON         CLOUDY    53  43  66 N7        29.52F
HOLDREGE       CLOUDY    51  39  64 N16G24    29.53F
KEARNEY *      MOCLDY    48  37  66 N13       29.57F
YORK           CLOUDY    46  41  81 N12       29.55S
$$

NEZ011>018-030>034-042>045-250900-
NORTHEAST NEBRASKA

CITY           SKY/WX    TMP DP  RH WIND       PRES   REMARKS
NORFOLK        CLOUDY    45  38  76 N9        29.58R
ALBION         CLOUDY    47  40  76 N7        29.57S
BLAIR          CLOUDY    53  43  70 N12       29.52R
FREMONT        PTCLDY    49  41  74 N3        29.55R
TEKAMAH        CLOUDY    50  42  74 NW8       29.53S
WAYNE          CLOUDY    45  40  85 N8        29.57S
$$

NEZ050>053-065>068-078-088>093-250900-
SOUTHEAST NEBRASKA

CITY           SKY/WX    TMP DP  RH WIND       PRES   REMARKS
LINCOLN        MOCLDY    52  42  69 N14       29.54F
OMAHA EPPLEY   CLOUDY    54  43  66 N12       29.51S
BEATRICE       PTCLDY    53  49  87 N7        29.50S
FALLS CITY     CLOUDY    55  47  74 SE6       29.49F
NEBRASKA CITY  CLOUDY    56  42  59 S9        29.49F
PLATTSMOUTH    MOCLDY    56  41  57 CALM      29.50F
$$

NEZ044-045-051>053-067-250900-
OMAHA AREA

CITY           SKY/WX    TMP DP  RH WIND       PRES   REMARKS
OMAHA EPPLEY   CLOUDY    54  43  66 N12       29.51S
BLAIR          CLOUDY    53  43  70 N12       29.52R
FREMONT        PTCLDY    49  41  74 N3        29.55R
MILLARD        CLOUDY    56  46  68 NW6       29.51S
OFFUTT AFB     CLOUDY    51  45  78 NW5       29.50F
PLATTSMOUTH    MOCLDY    56  41  57 CALM      29.50F
WAHOO          FAIR      48  41  76 N8        29.53F
$$




USA.gov is the U.S. government's official web portal to all federal, state and local government web resources and services.